LogoCoinalyze
    Ad-Free Version Anasayfa Piyasalar Fonlama Oranları
    Vadeli işlem verileri
    • Toplulaştırılmış veriler (Madeni Paralar)
    • Bireysel grafikler
    • Küresel grafikler
    Alarmlar
    TA
    Bitcoin Ethereum BNB Ripple Tron ZCash Dogecoin Monero UNUS SED LEO Chainlink Cardano Stellar Lumens Bitcoin Cash Litecoin Hedera Cronos Polkadot Ethereum Classic Algorand Quant Cosmos VeChain Dash Bitcoin SV BitTorrent Terra Decred Tezos Iota The Graph THETA Decentraland NEO Chiliz MultiversX Golem Basic Attention Token Horizen Qtum 0x DigiByte Beam FTX Token RIF Token Holo FUNToken Zilliqa Ontology aelf Nano Enjin Coin Ravencoin Siacoin Mask Network Verge Status WINk Waves IoTeX iExec RLC Power Ledger Steem Kyber Network Crystal Lisk Ardor Ark IOST WOO Network WAX Icon Storj Wanchain Loopring Bitcoin Diamond AdEx Bitcoin Gold Augur OmiseGO NEM MonaCoin BitShares Ren Komodo V Systems Nuls Mithril SOLVE Maker Aion EOS Nebulas HedgeTrade Bread Fetch.ai TomoChain Polygon Fantom Waltonchain GXChain Bytom Metaverse ETP MaidSafeCoin QASH
    Sırala:
    Daha
    • API
    • Mum Desenleri
    • Bağış
    • İletişim
    • Site Haritası
    • Gizlilik Politikası
    • Sorumluluk Reddi Beyanı
    • Theme:
    Türkçe
    • English
    • Français
    • Русский
    • Deutsch
    • Nederlands
    • Português (BR)
    • Español
    • 한국어
    • 简体中文
    • 日本語
     
    Giriş / Kaydol
    Markets/ Pepe/ PEPE ve USD/ PEPEUSD Coinbase
    İşlemler
    WL
    Sohbet
    İstatistikler
    Haberler
    ⦷
    AAA
    0.00000346 5871758.00000000 05:34:14
    0.00000346 5588794.00000000 05:33:33
    0.00000347 10300000.00000000 05:30:08
    0.00000347 173725601.00000000 05:30:00
    0.00000347 318000.00000000 05:30:00
    0.00000347 895522.00000000 05:28:07
    0.00000347 5704910.00000000 05:28:02
    0.00000347 3801693.00000000 05:26:03
    0.00000346 5127879.00000000 05:25:44
    0.00000346 416000000.00000000 05:25:44
    0.00000346 30700000.00000000 05:25:44
    0.00000346 284985200.00000000 05:25:44
    0.00000346 144508670.00000000 05:25:44
    0.00000346 47198940.00000000 05:25:44
    0.00000346 323977906.00000000 05:25:44
    0.00000346 1734104046.00000000 05:25:44
    0.00000347 285303.00000000 05:24:43
    0.00000346 32725227.00000000 05:23:17
    0.00000346 279587587.00000000 05:23:12
    0.00000346 154687500.00000000 05:23:10
    0.00000346 117975475.00000000 05:22:33
    0.00000346 434154.00000000 05:22:26
    0.00000346 226736338.00000000 05:21:53
    0.00000346 415853026.00000000 05:21:53
    0.00000346 146974.00000000 05:20:51
    0.00000347 4251393.00000000 05:20:45
    0.00000346 842357.00000000 05:17:12
    0.00000346 72675046.00000000 05:15:21
    0.00000346 6.00000000 05:15:21
    0.00000346 154687500.00000000 05:15:21
    0.00000346 24926242.00000000 05:15:21
    0.00000346 413155.00000000 05:13:50
    0.00000346 1656104.00000000 05:13:15
    0.00000345 280469139.00000000 05:11:13
    0.00000345 30700000.00000000 05:11:12
    0.00000345 11040577.00000000 05:10:26
    0.00000345 47198940.00000000 05:10:26
    0.00000345 154687500.00000000 05:10:17
    0.00000345 416000000.00000000 05:10:17
    0.00000345 120765368.00000000 05:10:16
    0.00000345 55702092.00000000 05:10:14
    0.00000345 47993329.00000000 05:10:14
    0.00000345 154687500.00000000 05:10:14
    0.00000345 2719171.00000000 05:10:14
    0.00000345 43522354.00000000 05:10:14
    0.00000345 30700000.00000000 05:10:14
    0.00000345 229437231.00000000 05:10:13
    0.00000345 344238286.00000000 05:10:13
    0.00000345 54057049.00000000 05:10:08
    0.00000345 901634.00000000 05:10:07
    0.00000345 16803031.00000000 05:10:07
    0.00000345 154687500.00000000 05:10:07
    0.00000345 30700000.00000000 05:10:07
    0.00000345 184816850.00000000 05:10:07
    0.00000345 67952021.00000000 05:10:05
    0.00000345 28585277.00000000 05:10:04
    0.00000345 26170920.00000000 05:10:04
    0.00000345 119532048.00000000 05:10:01
    0.00000345 60450529.00000000 05:10:01
    0.00000345 100225259.00000000 05:09:59
    0.00000345 450280.00000000 05:09:52
    0.00000345 340783941.00000000 05:09:49
    0.00000345 75216059.00000000 05:09:49
    0.00000345 319000.00000000 05:09:49
    0.00000345 6.00000000 05:09:49
    0.00000345 474126014.00000000 05:09:49
    0.00000345 102700000.00000000 05:09:49
    0.00000346 5897081.00000000 05:08:14
    0.00000346 14306358.00000000 05:08:10
    0.00000346 17560733.00000000 05:04:52
    0.00000346 102700000.00000000 05:04:51
    0.00000346 69091009.00000000 05:04:51
    0.00000346 69091009.00000000 05:04:51
    0.00000346 30700000.00000000 05:04:51
    0.00000346 47198940.00000000 05:04:38
    0.00000346 63192513.00000000 05:04:35
    0.00000346 47198940.00000000 05:04:35
    0.00000346 55068571.00000000 05:04:29
    0.00000346 416000000.00000000 05:04:29
    0.00000347 164300654.00000000 05:02:08
    0.00000347 413223140.00000000 05:02:08
    0.00000347 632183908.00000000 05:02:08
    0.00000347 22537000.00000000 05:02:08
    0.00000347 2665895736.00000000 05:02:08
    0.00000347 144092219.00000000 05:02:08
    0.00000347 144092219.00000000 05:02:08
    0.00000347 144092219.00000000 05:02:08
    0.00000347 30700000.00000000 05:02:08
    0.00000347 1731601731.00000000 05:02:08
    0.00000347 270615674.00000000 05:02:08
    0.00000347 297290564.00000000 05:02:08
    0.00000347 47198940.00000000 05:02:08
    0.00000347 154687500.00000000 05:02:08
    0.00000347 5969842.00000000 04:58:06
    0.00000347 60863773.00000000 04:57:40
    0.00000347 3727665.00000000 04:57:10
    0.00000347 2876607.00000000 04:56:54
    0.00000347 5900000.00000000 04:54:46
    0.00000347 432901.00000000 04:54:23
    0.00000347 4461512.00000000 04:53:43
    Çıkış
    AAA
    Yardım
    🙂 🤣 😎 🤗 😛 😉 😜 🤑 🤔 😑 😴 😕 🙃 😲 😇 🙁 😢 😬 😟 😠 🕺 🏃 💪 ✌ 👌 👍 👎 👏 👋 🤝 🍺 🍻 🐋 🐟 🦈 🗽 🚄 ✈ 🛑 🚀 🏦 🌚 ⭐ 🌞 ⚡ 🏆 💰 💲 🔨 ❓ ❗ 💯 🔶 🏁
    ☺
    Giriş veya Kaydol ve sohbet
    24 Saat
    Değişim
    -2.54%
    Hacim
    615,398,303,528
    Yüksek
    0.00000357
    Düşük
    0.00000343
    7 Gün
    Değişim
    -9.19%
    Hacim
    3,744,211,881,672
    Yüksek
    0.00000401
    Düşük
    0.00000337
    30 Gün
    Değişim
    +18.90%
    Hacim
    19,910,774,430,392
    Yüksek
    0.00000456
    Düşük
    0.00000253
    Pepe price rallies 25% as whale demand and futures interest surge
    Key takeaways Pepe has gained 25% this week, including a combined 22% advance over the previous two days. Seven whale transactions worth more than $1 million each occurred Thursday, the highest...
    coinjournal.net
    Aug 21, 2026 08:41
    PEPE Supply on Exchanges Just Took a Massive Hit – What’s Next?
    A drop in PEPE exchange balances has added to bullish expectations despite muted trader interest.
    cryptopotato.com
    Aug 6, 2026 20:02
    PEPE Exchange Outflows Hit Nearly 2-Year High as Whales Accumulate
    Pepe (PEPE) recorded its largest single-day exchange outflow since November 2024, with 4.54 trillion tokens leaving trading platforms, signaling that holders are moving supply away from immediate...
    beincrypto.com
    Aug 6, 2026 04:57
    Meme Coin Based on White House Shooter Conspiracy Rallies 320%
    $HENRY surged 300% after a 2023 Pepe tweet appeared to name the White House shooter, fueling a viral time-travel meme. The post Meme Coin Based on White House Shooter Conspiracy Rallies 320%...
    beincrypto.com
    Apr 27, 2026 16:11
    PEPE surges 4% as market sentiment improves, eyes Key resistance breakout
    Key takeaways Pepe extends gains on Wednesday, stretching its rally from the 50-day EMA. Derivatives data show heightened retail activity as risk-on sentiment returns to the market. Pepe (PEPE) is...
    coinjournal.net
    Apr 22, 2026 11:44
    Why The PEPE Price Could Stage A 55X Rally To Reach New $0.0001 ATH
    The PEPE price has now started to edge back into bullish conversations after the recent inflows into the crypto market. The last time PEPE’s weekly chart printed the kind of structure now...
    newsbtc.com
    Apr 21, 2026 15:30
    Pepe (PEPE) surges 9%, drawing interest from whales
    Key takeaways PEPE is up 9% in the last 24 hours, making it one of the best performers among the top 50 cryptocurrencies by market cap. The rally comes amid renewed interest from whales and retail...
    coinjournal.net
    Apr 16, 2026 07:40
    Murad Says SPX6900 (SPX) Is Primed for a Rally — Is He Right This Time?
    Crypto influencer Murad Mahmudov claims SPX6900 (SPX) is stabilizing at the same market cap level where Dogecoin (DOGE) and Pepe (PEPE) consolidated before their explosive rallies. The...
    beincrypto.com
    Apr 5, 2026 21:36
    The Shiba Inu Of This Cycle: Analyst Shares Why It Is Better To Buy PEPE Now
    In the bull market cycle of 2021-2022, the Shiba Inu meme coin made waves in a way that changed the face of meme coins forever. This came after Dogecoin’s initial 36,000% rally, and Shiba Inu...
    newsbtc.com
    Apr 4, 2026 07:30
    PEPE Explodes by 18% Amid Altcoin Rally, BTC Tapped $74K: Market Watch
    The frog-themed meme coin is today's biggest gainer, followed by TAO, DOT, and BONK.
    cryptopotato.com
    Mar 16, 2026 10:56
    Should PEPE traders brace for volatility as short squeeze potential builds?
    The memecoin market has seen its collective market capitalization drop by 48% over the past year, and 6.9% over the past month, according to CoinMarketCap. According to Glassnode, the memecoin...
    ambcrypto.com
    Mar 7, 2026 18:00
    Komutu sohbete yazmanız yeterlidir. Takma ad1'i gerçek takma adla değiştirin.
    • /ignore nick1 Sohbet kullanıcısını engelle
    • /unignore nick1 Sohbet kullanıcısının engelini kaldır.
    • /ignorelist Engellediğiniz sohbet kullanıcılarını gösterin